Regional Weather Roundup
Issued by NWS

Home | Current Version | Previous Version | Graphics & Text | Print | Product List | Glossary On
Versions: 1 2 3 4 5 6 7 8 9 10 11 12 13 14 15 16 17 18 19 20 21 22 23 24 25 26 27 28 29 30 31 32 33 34 35 36 37 38 39 40 41 42 43 44 45 46 47 48 49 50
000
ASUS43 KLMK 070702
RWRKY
KENTUCKY REGIONAL WEATHER ROUNDUP
NATIONAL WEATHER SERVICE LOUISVILLE KY
200 AM EST SUN FEB 07 2016

NOTE "FAIR" INDICATES FEW OR NO CLOUDS BELOW 12,000 FEET
WITH NO SIGNIFICANT WEATHER AND/OR OBSTRUCTIONS TO VISIBILITY.

KYZ001>023-026-027-061>063-070>075-070800-
WESTERN AND SOUTH CENTRAL KENTUCKY

CITY           SKY/WX    TMP DP  RH WIND       PRES   REMARKS
PADUCAH        CLEAR     33  22  63 SW6       30.23F WCI  28
HENDERSON      CLEAR     34  21  60 SW8       30.21F WCI  27
OWENSBORO      CLEAR     35  25  67 S6        30.22F WCI  30
HOPKINSVILLE   CLEAR     36  21  54 SW2       30.24F
BOWLING GREEN  PTCLDY    30  23  75 CALM      30.25F
GLASGOW        NOT AVBL
$$

KYZ024-025-028>034-038-045-046-053-070800-
NORTH CENTRAL KENTUCKY

CITY           SKY/WX    TMP DP  RH WIND       PRES   REMARKS
LOUISVILLE/SDF PTCLDY    34  24  67 SE5       30.21F WCI  30
LOUISVILLE/LOU PTCLDY    32  25  75 CALM      30.21F
FORT KNOX      CLEAR     33  22  64 SW3       30.19F
$$

KYZ035>037-039>044-047>052-055>060-089>105-070800-
NORTHEAST KENTUCKY

CITY           SKY/WX    TMP DP  RH WIND       PRES   REMARKS
LEXINGTON      PTCLDY    34  22  61 SW6       30.21F WCI  29
COVINGTON      CLEAR     33  23  66 S8        30.18F WCI  26
FRANKFORT      PTCLDY    26  21  81 CALM      30.20F
$$

KYZ054-064>069-076>088-106>120-070800-
SOUTHEAST KENTUCKY

CITY           SKY/WX    TMP DP  RH WIND       PRES   REMARKS
JACKSON        CLEAR     35  20  54 SW3       30.20F
LONDON         CLEAR     27  21  78 CALM      30.22F
SOMERSET       NOT AVBL
MIDDLESBORO    NOT AVBL
MONTICELLO     SUNNY     21  18  88 W10       30.25F WCI  10
$$




USA.gov is the U.S. government's official web portal to all federal, state and local government web resources and services.